[[{"header":{"parameterUnit":"m.s-1","parameterCategory":1,"la1":30.2991,"la2":30.254,"lo1":-89.0895,"lo2":-89.0444,"dy":0.0017,"dx":0.0017,"nx":28,"ny":28,"refTime":"2025-03-22T03:00:00:Z","depth":0,"parameterNumber":2,"parameterNumberName":"U-component_of_WINDS"},"data":[0,0,0,0,0,0,0,0,0,0,0,0,0,0,0,0,0,0,0,0,0,0,0,0,0,0,0,0,0,0,0,0,0,0,0,0,0,0,0,0,0,0,0,0,0,0,0,0,0,0,0,0,0,0,0,0,0,0,-0.6103,-0.6103,0,-0.6075,-0.6075,-0.6074,-0.605,-0.605,-0.605,-0.605,-0.6023,-0.6023,-0.6022,0,0,0,0,0,0,0,0,0,0,0,0,0,-0.6139,-0.6139,-0.6103,-0.6103,-0.6102,-0.6075,-0.6075,-0.6074,-0.605,-0.605,-0.605,-0.6049,-0.6023,-0.6023,-0.6022,0,0,0,0,0,0,0,0,0,0,0,0,0,-0.6119,-0.6138,-0.6103,-0.6087,-0.6085,-0.6075,-0.6075,-0.6074,-0.6051,-0.605,-0.605,-0.6049,-0.6024,-0.6023,-0.6022,-0.6026,0,0,-0.602,-0.602,0,0,0,0,0,0,0,0,-0.612,-0.6117,-0.609,-0.6088,-0.6086,-0.6066,-0.6078,-0.6058,-0.6051,-0.6064,-0.605,-0.6049,-0.6038,-0.6036,-0.6032,-0.6025,-0.6024,-0.602,-0.602,-0.602,-0.6019,0,0,0,0,0,0,0,-0.6121,-0.6118,-0.6092,-0.609,-0.6087,-0.6082,-0.6079,-0.6074,-0.6054,-0.6063,-0.6061,-0.6058,-0.6037,-0.6032,-0.6031,-0.6024,-0.602,-0.602,-0.6019,-0.6019,-0.602,-0.6021,0,0,0,0,0,0,-0.6125,-0.612,-0.6093,-0.6091,-0.6102,-0.6082,-0.6078,-0.6073,-0.6054,-0.605,-0.6058,-0.6057,-0.6034,-0.6032,-0.603,-0.6034,-0.602,-0.6019,-0.6019,-0.602,-0.602,-0.6021,0,0,0,0,0,0,-0.6126,-0.6123,-0.6094,-0.6105,-0.6101,-0.6082,-0.6076,-0.6073,-0.6068,-0.605,-0.6047,-0.6057,-0.6033,-0.6031,-0.6028,-0.6033,-0.6019,-0.6018,-0.6019,-0.602,-0.6021,-0.6042,0,0,0,0,0,0,-0.6127,-0.6123,-0.6124,-0.6105,-0.61,-0.6091,-0.6076,-0.6072,-0.6067,-0.6065,-0.6048,-0.6045,-0.6033,-0.6029,-0.6027,-0.6032,-0.6017,-0.6019,-0.602,-0.602,-0.6041,-0.6044,-0.6046,0,0,0,0,0,-0.6128,-0.6131,-0.6124,-0.6121,-0.6101,-0.6092,-0.6089,-0.6074,-0.6067,-0.6068,-0.6057,-0.6046,-0.6033,-0.6029,-0.6026,-0.6031,-0.6018,-0.6019,-0.602,-0.604,-0.6043,-0.6046,0,0,0,0,0,0,-0.6152,-0.6129,-0.612,-0.6117,-0.6107,-0.6088,-0.6088,-0.6078,-0.607,-0.6068,-0.6051,-0.6047,-0.6046,-0.6038,-0.6034,-0.6035,-0.6024,-0.6025,-0.604,-0.6043,-0.6045,-0.6047,-0.6017,0,0,0,0,0,-0.6156,-0.615,-0.6131,-0.613,-0.6125,-0.6108,-0.6103,-0.6093,-0.6081,-0.6077,-0.6065,-0.6056,-0.6049,-0.6045,-0.6039,-0.604,-0.6037,-0.6042,-0.6045,-0.6047,-0.6048,-0.6049,-0.6051,-0.6024,-0.6024,-0.6024,0,0,-0.6166,-0.6153,-0.615,-0.6134,-0.6125,-0.612,-0.6104,-0.6099,-0.6096,-0.6076,-0.6073,-0.6064,-0.6052,-0.6051,-0.605,-0.6044,-0.6054,-0.6048,-0.605,-0.6049,-0.605,-0.6052,-0.6055,-0.6025,-0.6025,-0.6024,0,0,-0.6182,-0.6171,-0.6169,-0.616,-0.6146,-0.6134,-0.6134,-0.6117,-0.611,-0.6106,-0.6092,-0.6088,-0.6077,-0.6069,-0.6064,-0.6077,-0.6067,-0.6076,-0.6088,-0.609,-0.6092,-0.6094,-0.6099,-0.6101,-0.6076,-0.6076,-0.6076,0,-0.6197,-0.6187,-0.617,-0.6166,-0.616,-0.6142,-0.6141,-0.6133,-0.6118,-0.6115,-0.6108,-0.6095,-0.6085,-0.6083,-0.6086,-0.6082,-0.6082,-0.6078,-0.6093,-0.6094,-0.6096,-0.6101,-0.6103,-0.6078,-0.6077,-0.6077,-0.6077,0,-0.6206,-0.62,-0.6201,-0.6186,-0.618,-0.6178,-0.6162,-0.6158,-0.6148,-0.6137,-0.6134,-0.6122,-0.6113,-0.6111,-0.6102,-0.6108,-0.6105,-0.6096,-0.6085,-0.61,-0.6105,-0.6106,-0.6079,-0.6079,-0.6079,-0.6078,0,0,-0.6236,-0.6212,-0.6212,-0.6206,-0.6189,-0.6184,-0.6182,-0.6172,-0.617,-0.616,-0.6158,-0.615,-0.6141,-0.6135,-0.6125,-0.6126,-0.6138,-0.6117,-0.6116,-0.6122,-0.6146,-0.6153,-0.6156,-0.6131,-0.6132,-0.6132,-0.6147,0,-0.625,-0.6243,-0.6228,-0.6226,-0.6221,-0.6204,-0.6202,-0.6192,-0.6183,-0.6178,-0.6167,-0.6162,-0.6151,-0.6147,-0.6147,-0.6137,-0.6143,-0.6135,-0.613,-0.613,-0.6135,-0.6158,-0.6165,-0.618,-0.6148,-0.6149,-0.6149,0,-0.6265,-0.6255,-0.6253,-0.6237,-0.6235,-0.6233,-0.6223,-0.6218,-0.6207,-0.62,-0.6194,-0.6182,-0.6179,-0.6169,-0.6166,-0.6161,-0.6158,-0.6153,-0.6153,-0.6152,-0.6141,-0.6159,-0.6184,-0.6187,-0.6152,-0.6151,-0.6151,0,-0.6288,-0.6275,-0.6272,-0.6267,-0.6248,-0.6247,-0.6239,-0.6228,-0.6223,-0.6215,-0.6212,-0.6204,-0.62,-0.6194,-0.6181,-0.6174,-0.618,-0.6168,-0.6175,-0.6175,-0.6177,-0.6178,-0.6204,-0.6174,-0.6174,-0.6174,-0.6174,0,-0.6305,-0.6305,-0.6282,-0.6281,-0.628,-0.6263,-0.6263,-0.6254,-0.6244,-0.6241,-0.6226,-0.6224,-0.6206,-0.6202,-0.6192,-0.6191,-0.6189,-0.6184,-0.6182,-0.6186,-0.6187,-0.6185,-0.6184,-0.6175,-0.6175,-0.6174,-0.6174,0,-0.6331,-0.6316,-0.6312,-0.6294,-0.629,-0.629,-0.6276,-0.6274,-0.6263,-0.626,-0.6258,-0.6242,-0.6237,-0.6223,-0.6214,-0.6207,-0.621,-0.6205,-0.6214,-0.6212,-0.622,-0.622,-0.6246,-0.6249,-0.6217,-0.6218,-0.6218,0,-0.6343,-0.6343,-0.6325,-0.6321,-0.6314,-0.6309,-0.6304,-0.6288,-0.6284,-0.6271,-0.6271,-0.6265,-0.6258,-0.6251,-0.6239,-0.6232,-0.6227,-0.6237,-0.6226,-0.6231,-0.6228,-0.6229,-0.6229,-0.624,-0.624,-0.624,-0.6241,0,-0.6367,-0.636,-0.6353,-0.6344,-0.6338,-0.6331,-0.6322,-0.632,-0.6302,-0.6298,-0.6292,-0.6288,-0.6278,-0.6272,-0.6264,-0.6257,-0.6246,-0.6244,-0.6245,-0.625,-0.6256,-0.6254,-0.6221,-0.6244,-0.6243,-0.6243,-0.6243,-0.6243,-0.6387,-0.6386,-0.6374,-0.6367,-0.6359,-0.6351,-0.6349,-0.6338,-0.6332,-0.6323,-0.6314,-0.631,-0.6299,-0.6287,-0.628,-0.6277,-0.6271,-0.6273,-0.6274,-0.6275,-0.6277,-0.6256,-0.6275,-0.6275,-0.6275,-0.6275,-0.6275,0,-0.6411,-0.6402,-0.6396,-0.6385,-0.638,-0.6369,-0.6359,-0.6356,-0.6352,-0.6342,-0.6337,-0.633,-0.6325,-0.6312,-0.6305,-0.6305,-0.63,-0.6304,-0.6304,-0.6303,-0.6282,-0.6282,-0.6308,-0.6308,-0.6308,-0.6308,-0.6308,-0.6308,-0.6423,-0.6421,-0.6412,-0.6406,-0.6398,-0.6392,-0.6388,-0.6381,-0.6374,-0.6367,-0.6362,-0.6354,-0.6344,-0.6336,-0.6331,-0.6327,-0.6326,-0.6332,-0.6327,-0.6308,-0.6304,-0.6302,-0.6301,-0.6331,-0.6331,-0.6348,-0.6348,-0.6348]},{"header":{"parameterUnit":"m.s-1","parameterCategory":1,"la1":30.2991,"la2":30.254,"lo1":-89.0895,"lo2":-89.0444,"dy":0.0017,"dx":0.0017,"nx":28,"ny":28,"refTime":"2025-03-22T03:00:00:Z","depth":0,"parameterNumber":3,"parameterNumberName":"V-component_of_WINDS"},"data":[0,0,0,0,0,0,0,0,0,0,0,0,0,0,0,0,0,0,0,0,0,0,0,0,0,0,0,0,0,0,0,0,0,0,0,0,0,0,0,0,0,0,0,0,0,0,0,0,0,0,0,0,0,0,0,0,0,0,3.0035,3.0035,0,3.0112,3.0113,3.0114,3.0084,3.0082,3.008,3.0078,3.0154,3.0158,3.0161,0,0,0,0,0,0,0,0,0,0,0,0,0,2.9856,2.9859,3.0035,3.0036,3.0037,3.0112,3.0113,3.0114,3.0084,3.0082,3.008,3.0077,3.0153,3.0157,3.0161,0,0,0,0,0,0,0,0,0,0,0,0,0,2.9933,2.986,3.0034,3.0031,3.0031,3.0112,3.0113,3.0114,3.0084,3.0082,3.0079,3.0076,3.0151,3.0157,3.0162,3.025,0,0,3.0179,3.0181,0,0,0,0,0,0,0,0,2.9929,2.994,3.003,3.0031,3.0032,3.0085,3.0077,3.0159,3.0085,3.0064,3.0078,3.0075,3.0133,3.014,3.016,3.0253,3.0256,3.0179,3.0183,3.0185,3.0187,0,0,0,0,0,0,0,2.9923,2.9936,3.0065,3.0032,3.0032,3.0023,3.0031,3.0093,3.0112,3.0066,3.0064,3.0073,3.0133,3.0155,3.0162,3.0258,3.0179,3.0184,3.0188,3.019,3.0422,3.0425,0,0,0,0,0,0,2.9918,2.9932,3.0063,3.0067,2.9973,3.0029,3.0038,3.0071,3.0112,3.0116,3.0076,3.0072,3.0147,3.0155,3.0164,3.0267,3.0185,3.019,3.0193,3.0419,3.0423,3.0426,0,0,0,0,0,0,2.9915,2.993,3.0059,2.9999,3.0015,3.0035,3.0072,3.0074,3.0096,3.0119,3.0122,3.0095,3.0145,3.0156,3.0228,3.0269,3.0193,3.0198,3.0416,3.042,3.0424,3.0474,0,0,0,0,0,0,2.991,2.9929,2.9964,3.0,3.0018,3.0124,3.0075,3.0077,3.0106,3.0101,3.0138,3.0142,3.0144,3.022,3.0233,3.0275,3.0202,3.0412,3.0418,3.0423,3.0468,3.0479,3.0488,0,0,0,0,0,2.9903,2.9975,2.9966,2.9982,3.0063,3.0126,3.0136,3.0138,3.0109,3.0143,3.0158,3.014,3.0263,3.0228,3.0243,3.0286,3.041,3.0416,3.0422,3.0464,3.0477,3.0488,0,0,0,0,0,0,2.9943,2.998,2.997,3.0056,3.0088,3.0121,3.0164,3.0153,3.0193,3.0187,3.0187,3.0195,3.0268,3.0285,3.0245,3.0371,3.0331,3.0341,3.0358,3.037,3.038,3.0374,3.0207,0,0,0,0,0,2.9962,3.0012,3.0041,3.0114,3.013,3.0145,3.0173,3.0171,3.0204,3.0217,3.0237,3.0268,3.0313,3.0343,3.0386,3.0471,3.0477,3.0508,3.0518,3.0526,3.0534,3.0576,3.059,3.0447,3.0447,3.0447,0,0,3.0001,3.0027,3.0059,3.0122,3.0147,3.0196,3.0156,3.0211,3.0247,3.0225,3.0293,3.0309,3.0344,3.0421,3.0456,3.0437,3.0575,3.0534,3.0541,3.0544,3.0584,3.0598,3.061,3.0451,3.045,3.045,0,0,3.0097,3.0124,3.0186,3.0211,3.0249,3.0257,3.0272,3.0306,3.0316,3.0385,3.0368,3.041,3.0489,3.0513,3.0536,3.0638,3.0622,3.0652,3.0703,3.0745,3.0756,3.0766,3.08,3.0812,3.066,3.0661,3.0661,0,3.0141,3.0217,3.0219,3.0274,3.0301,3.0284,3.0345,3.0369,3.0419,3.0436,3.0414,3.0511,3.0533,3.0614,3.0639,3.0659,3.0674,3.0647,3.0755,3.0765,3.0774,3.0806,3.0819,3.0664,3.0663,3.0663,3.0663,0,3.0266,3.0319,3.0364,3.0412,3.0444,3.0503,3.0511,3.0543,3.0539,3.0549,3.0617,3.0643,3.0689,3.0709,3.0706,3.0789,3.0775,3.0754,3.0714,3.079,3.082,3.0833,3.0668,3.0667,3.0666,3.0665,0,0,3.039,3.0437,3.0454,3.0474,3.0513,3.0553,3.0609,3.0655,3.0681,3.0715,3.076,3.0826,3.0806,3.0831,3.083,3.0867,3.0942,3.0841,3.0841,3.0856,3.1032,3.1046,3.106,3.0933,3.0935,3.0937,3.1028,0,3.0487,3.0586,3.0589,3.0679,3.0725,3.0708,3.0756,3.0784,3.0795,3.0834,3.0845,3.0891,3.0863,3.0877,3.0913,3.0926,3.0977,3.0919,3.0972,3.0974,3.0961,3.1077,3.1092,3.1177,3.104,3.1042,3.1044,0,3.0614,3.0652,3.0746,3.0776,3.0796,3.0839,3.088,3.0919,3.0949,3.0954,3.0982,3.0974,3.1028,3.0987,3.1061,3.1021,3.1042,3.1052,3.1055,3.1058,3.1012,3.108,3.1205,3.1216,3.1063,3.1061,3.106,0,3.0691,3.0766,3.0831,3.0849,3.0887,3.0917,3.0933,3.0961,3.0988,3.1023,3.1039,3.108,3.1102,3.1133,3.1136,3.1106,3.1208,3.1168,3.1211,3.1211,3.1232,3.123,3.1359,3.125,3.125,3.125,3.1249,0,3.0797,3.0855,3.0865,3.0905,3.0968,3.097,3.1032,3.1046,3.107,3.1111,3.1099,3.1137,3.1139,3.1178,3.118,3.1238,3.1249,3.1252,3.1252,3.1252,3.1251,3.1265,3.1258,3.1253,3.1252,3.1252,3.1251,0,3.0893,3.0903,3.0973,3.1002,3.101,3.1055,3.1079,3.1116,3.1125,3.1176,3.1188,3.1202,3.1246,3.1252,3.1304,3.1305,3.1374,3.1369,3.1364,3.1363,3.1404,3.1399,3.1544,3.1562,3.1444,3.1445,3.1446,0,3.096,3.1004,3.1037,3.1064,3.1082,3.1125,3.1152,3.1154,3.1182,3.1218,3.125,3.1293,3.1327,3.1398,3.1412,3.145,3.1444,3.1492,3.145,3.1448,3.1441,3.1438,3.1441,3.15,3.1501,3.1502,3.1503,0,3.1076,3.1078,3.1117,3.1157,3.1189,3.1221,3.1251,3.1273,3.1278,3.131,3.1355,3.1382,3.1434,3.1476,3.1514,3.1529,3.1516,3.1516,3.1528,3.1527,3.1522,3.1522,3.1384,3.1513,3.1512,3.1511,3.151,3.151,3.1157,3.1194,3.1222,3.1265,3.1288,3.1316,3.1351,3.1363,3.1402,3.1444,3.1443,3.1492,3.1518,3.1568,3.1586,3.1622,3.1606,3.1624,3.1628,3.1631,3.1634,3.1518,3.163,3.1629,3.1629,3.1629,3.1629,0,3.1269,3.1287,3.1326,3.1368,3.1401,3.1387,3.1419,3.1447,3.149,3.1517,3.155,3.16,3.164,3.1656,3.1695,3.1721,3.1716,3.1731,3.1728,3.1731,3.1648,3.1632,3.1734,3.1734,3.1734,3.1734,3.1734,3.1734,3.1332,3.1392,3.1397,3.1468,3.1484,3.1532,3.1551,3.1575,3.1596,3.1652,3.1686,3.1696,3.1717,3.1757,3.1792,3.1795,3.1808,3.1826,3.1826,3.1748,3.1737,3.1727,3.1712,3.1829,3.1829,3.1906,3.1906,3.1907]}]]